Location: Kirchberg
(47.4114°N, 9.0398°E)
Time: 11:19:48
(UTC+00:00)

ATLAS CENTAUR R/B - Pass Details

Date: 03 March 2021
Orbit: 475 x 670 km, 64.7° (Epoch: 30 March)

Event Time Altitude Azimuth Distance (km) Brightness Sun altitude
Rises 18:18:40 0° 201° (SSW) 2,521 4.9 -12.1°
Reaches altitude 10° 18:20:50 10° 195° (SSW) 1,640 3.9 -12.4°
Maximum altitude 18:24:19 46° 122° (ESE) 650 1.3 -13.0°
Enters shadow 18:27:02 16° 53° (NE) 1,345 2.9 -13.5°
